Powrót do katalogu

DELTA 1 DEB

AktywnyLEO
NORAD 7042·DEBRIS·🇺🇸 United States

Wystrzelony Nov 6, 1973 z Vandenberg Space Force Base

Loading…

Następne Przeloty (najbliższe 24 godziny)

TLE

ŚwieżeSource: Space-Track

Epoka: Sep 14, 2026, 13:03 UTC

1 07042U 73086AJ  26257.54401020  .00000295  00000-0  42162-3 0  9999
2 07042 101.7144 162.4602 0314364 230.8535 126.4266 13.48446013574288

Śledź DELTA 1 DEB w czasie rzeczywistym z AllMySat

Download on the App Store